Hourly Data Report for February 21, 2006

TORONTO CITY
ONTARIO

43°40'00.000" N
79°24'00.000" W
112.50 m
6158355
71508
XTO

Download Data

Hourly Data (February 2006)
Hourly Data Report for February 21, 2006
TIME
LST
Temp Definition
°C
Dew Point Definition
°C
Rel Hum Definition
%
Precip. Amount Definition
mm

Wind Dir Definition
10's deg

Wind Spd Definition
km/h
Visibility Definition
km
Stn Press Definition
kPa
Hmdx Definition


Wind Chill Definition


Weather Definition


00:00 -3.0 -8.8 64   LegendMM LegendMM   99.82     LegendNANA
01:00 -2.9 -9.4 61   LegendMM LegendMM   99.77     LegendNANA
02:00 -2.9 -9.4 61   LegendMM LegendMM   99.71     LegendNANA
03:00 -2.9 -9.2 62   LegendMM LegendMM   99.63     LegendNANA
04:00 -2.6 -9.2 60   LegendMM LegendMM   99.55     LegendNANA
05:00 -2.3 -8.4 63   LegendMM LegendMM   99.54     LegendNANA
06:00 -2.2 -7.1 69   LegendMM LegendMM   99.50     LegendNANA
07:00 -2.0 -6.2 73   LegendMM LegendMM   99.47     LegendNANA
08:00 -2.1 -6.3 73   LegendMM LegendMM   99.49     LegendNANA
09:00 -1.2 -6.0 70   LegendMM LegendMM   99.52     LegendNANA
10:00 -0.2 -6.2 64   LegendMM LegendMM   99.52     LegendNANA
11:00 1.1 -6.1 59   LegendMM LegendMM   99.55     LegendNANA
12:00 1.0 -6.0 59   LegendMM LegendMM   99.67     LegendNANA
13:00 1.4 -4.5 65   LegendMM LegendMM   99.70     LegendNANA
14:00 2.7 -8.0 45   LegendMM LegendMM   99.72     LegendNANA
15:00 0.6 -6.2 60   LegendMM LegendMM   99.81     LegendNANA
16:00 0.7 -7.1 56   LegendMM LegendMM   99.89     LegendNANA
17:00 0.2 -9.3 49   LegendMM LegendMM   99.93     LegendNANA
18:00 -0.7 -9.7 51   LegendMM LegendMM   100.04     LegendNANA
19:00 -1.3 -9.4 54   LegendMM LegendMM   100.17     LegendNANA
20:00 -1.7 -9.7 54   LegendMM LegendMM   100.20     LegendNANA
21:00 -2.4 -9.4 59   LegendMM LegendMM   100.17     LegendNANA
22:00 -2.3 -9.4 58   LegendMM LegendMM   100.15     LegendNANA
23:00 -2.4 -9.1 60   LegendMM LegendMM   100.14     LegendNANA

Notes on Data Quality.

Legend

  • E = Estimated
  • M = Missing
  • NA = Not Available*
  • [empty] = Indicates an unobserved value
Date modified: